(21) Lutetia
ephemeris date magn radius delta ra dec elong phase
Today19 Jul 202513.22.782 AU3.408 AU10h54m+09°41'44.9°14.9°
Opposition29 May 202610.02.317 AU1.304 AU16h29m-20°38'178.3°0.7°
(21) Lutetia - 2025-07-19
astro.vanbuitenen.nl


 
-1 year
-1 month
-1 day
Now
+1 day
+1 month
+1 year

The interactive orbit chart above shows the body's path through the solar system and its position at the given date. Green and blue lines are shown perpendicular to the ecliptic plane: Green if the path is above the ecliptic plane, blue if it is below. (Left-click and drag to rotate the view; Right-click and drag to move the view; Use scroll wheel to zoom in our out.)

The orbital elements of Lutetia are:

            e (Eccentricity)                : 0.1647994
            a (Semimajor axis)              : 2.4338459
            i (Inclination)                 : 3.06457
            Ω (Longitude of ascending node) : 80.83701
            ω (Argument of perihelion)      : 249.97764
            M (Mean anomaly)                : 194.85008
            Epoch                           : 2025 May 05

            L (Longitude of perihelion)     : 150.78826
            B (Latitude of perihelion)      : -2.87918
            P (Orbital period in years)     : 3.80            
        

The light curve chart below shows the estimated development of the minor planet's magnitude.


The all-sky chart below shows the path of the minor planet over the same period as the light curve. The current position is marked yellow.





The following chart shows the path of the minor planet in the next few days. The field of view is optimized for (~10x50) binoculars and finderscopes. A more printer-friendly version of the same chart can be found below.




Ephemerides:
Date       Time       RA (2000)    DEC (2000)    delta   radius  elong  phase   PA    magn
2025-07-19 00:00 UT   10 54 10.5   +09 41 47     3.408    2.782   44.9   14.9   110   13.2 
2025-07-19 05:39 UT   10 54 29.1   +09 39 46     3.410    2.782   44.8   14.9   110   13.2 
2025-07-20 00:00 UT   10 55 29.5   +09 33 14     3.416    2.782   44.3   14.8   110   13.2 
2025-07-21 00:00 UT   10 56 48.7   +09 24 38     3.425    2.781   43.7   14.6   110   13.2 
2025-07-22 00:00 UT   10 58 08.2   +09 15 60     3.433    2.780   43.1   14.5   110   13.2 
2025-07-23 00:00 UT   10 59 28.0   +09 07 19     3.442    2.779   42.5   14.3   110   13.2 
2025-07-24 00:00 UT   11 00 48.0   +08 58 36     3.450    2.778   42.0   14.1   110   13.2 
2025-07-25 00:00 UT   11 02 08.3   +08 49 51     3.458    2.778   41.4   14.0   110   13.2 
2025-07-26 00:00 UT   11 03 28.8   +08 41 03     3.466    2.777   40.8   13.8   110   13.2 
2025-07-27 00:00 UT   11 04 49.6   +08 32 13     3.474    2.776   40.2   13.7   110   13.2 
2025-07-28 00:00 UT   11 06 10.6   +08 23 21     3.481    2.775   39.6   13.5   110   13.2 
2025-07-29 00:00 UT   11 07 31.9   +08 14 27     3.489    2.774   39.0   13.3   110   13.2 
2025-07-30 00:00 UT   11 08 53.4   +08 05 30     3.496    2.773   38.4   13.1   110   13.2 
2025-07-31 00:00 UT   11 10 15.1   +07 56 31     3.504    2.773   37.8   13.0   110   13.2 
2025-08-01 00:00 UT   11 11 37.0   +07 47 31     3.511    2.772   37.2   12.8   110   13.2 
2025-08-02 00:00 UT   11 12 59.1   +07 38 28     3.518    2.771   36.7   12.6   110   13.2 
2025-08-03 00:00 UT   11 14 21.5   +07 29 23     3.525    2.770   36.1   12.5   110   13.2 
2025-08-04 00:00 UT   11 15 44.1   +07 20 17     3.532    2.769   35.5   12.3   110   13.2 
2025-08-05 00:00 UT   11 17 06.8   +07 11 08     3.539    2.768   34.9   12.1   110   13.2 
2025-08-06 00:00 UT   11 18 29.8   +07 01 58     3.545    2.767   34.3   11.9   110   13.2 
2025-08-07 00:00 UT   11 19 53.0   +06 52 45     3.552    2.766   33.7   11.7   110   13.2 
2025-08-08 00:00 UT   11 21 16.4   +06 43 31     3.558    2.766   33.2   11.6   109   13.2 
2025-08-09 00:00 UT   11 22 39.9   +06 34 15     3.564    2.765   32.6   11.4   109   13.2 
2025-08-10 00:00 UT   11 24 03.7   +06 24 58     3.571    2.764   32.0   11.2   109   13.2 
2025-08-11 00:00 UT   11 25 27.7   +06 15 38     3.577    2.763   31.4   11.0   109   13.2 


    Terminology:
            
    delta:  distance between minor planet and earth in AU
    radius: distance between minor planet and sun in AU
    magn:   magnitude (brightness) estimate    
    ra:     right ascension in hours (24h = 360deg)
    dec:    declination in degrees
    elong:  elongation in degrees (angle sun-earth-minor planet)    
    phase:  phase angle in degrees (angle sun-minor planet-earth)        
    AU:     Astronomical Unit (mean distance between earth and sun: 149597870.7 km
    

Orbital elements provided by the MPC (Minor Planet Center).
Calculations by a modified version of AAPlus, a C# implementation of the AA+ project by PJ Naughter from the algorithms presented in the book "Astronomical Algorithms" by Jean Meeus.
NGC2000 dso catalog and star labels from VizieR as provided by the Strasbourg astronomical Data Center.
Tycho2 catalog from the ESO archive.